User: anonymous   Login
Location: Gand�
(15.0971°N, 12.6564°W)
Time: 14:00:38
(UTC+00:00)
Language:

GPS 2-18 Rocket1 - Orbit

View from above orbital plane
View from above orbital plane
View from above satellite
View from above satellite

Ground track
Ground track

The orbit data is extracted from the following two-line orbital elements,

1 22447U 93007B   20294.84827143 +.00002291 +00000-0 +62188-4 0  9995
2 22447 020.8523 111.3387 0041143 004.6520 355.4302 15.26349191520151
Epoch (UTC): 20 October 2020 20:21:30
Eccentricity: 0.0041143
inclination: 20.8523°
perigee height: 458 km
apogee height: 515 km
right ascension of ascending node: 111.3387°
argument of perigee: 4.6520°
revolutions per day: 15.26349191
mean anomaly at epoch: 355.4302°
orbit number at epoch: 52015

The dashed part of the orbit path shows where the satellite is in the earth's shadow,  

DLR